Regional Weather Roundup
Issued by NWS Green Bay, WI

Home | Current Version | Previous Version | Graphics & Text | Print | Product List | Glossary Off
Versions: 1 2 3 4 5 6 7 8 9 10 11 12 13 14 15 16 17 18 19 20 21 22 23 24 25 26 27 28 29 30 31 32 33 34 35 36 37 38 39 40 41 42 43 44 45 46 47 48 49 50

000
ASUS43 KGRB 211401
RWRGRB

NORTH-CENTRAL AND NORTHEAST WISCONSIN REGIONAL WEATHER ROUNDUP
NATIONAL WEATHER SERVICE GREEN BAY WI
900 AM CDT FRI JUL 21 2017

WIZ005-009-010>012-018-019-211500-
NORTH CENTRAL WISCONSIN

CITY           SKY/WX    TMP DP  RH WIND       PRES   REMARKS
IRONWOOD       CLOUDY    65  63  93 CALM      29.99R
MANITOWISH WTR CLOUDY    72  68  87 S5        30.01R
ARBOR VITAE    NOT AVBL
EAGLE RIVER    NOT AVBL
LAND O LAKES   CLOUDY    71  64  80 SW5       30.03R
RHINELANDER    SUNNY     73  66  78 SW8       30.02R
PHILLIPS       PTSUNNY   72  67  85 SW3       30.00S
ANTIGO         SUNNY     73  65  75 SW6       30.03R
TOMAHAWK       NOT AVBL
MERRILL        SUNNY     70  67  89 CALM      30.02R
$$

WIZ013-073-211500-
NORTHEAST WISCONSIN

CITY           SKY/WX    TMP DP  RH WIND       PRES   REMARKS
IRON MOUNTAIN  SUNNY     74  61  63 CALM      29.97S
MARINETTE      SUNNY     76  67  73 SW6       29.98R
$$

WIZ017-030-035>037-045-211500-
CENTRAL WISCONSIN

CITY           SKY/WX    TMP DP  RH WIND       PRES   REMARKS
MEDFORD        NOT AVBL
WAUSAU         SUNNY     74  66  76 S6        29.99R
MOSINEE        MOSUNNY   72  72 100 SE5       30.01R
MARSHFIELD     MOSUNNY   76  66  71 SE7       29.99R
WISC RAPIDS    SUNNY     78  66  66 SE8       30.00R
STEVENS POINT  NOT AVBL
WAUPACA        NOT AVBL
SHAWANO        SUNNY     77  67  70 SW6       29.99R
CLINTONVILLE   SUNNY     73  64  73 CALM      30.00R
WAUTOMA        PTSUNNY   76  69  79 NE5         N/A
$$

WIZ038-039-048-051-211500-
FOX VALLEY

CITY           SKY/WX    TMP DP  RH WIND       PRES   REMARKS
NWS GREEN BAY  CLOUDY    76  70  82 S3        29.98R
APPLETON       PTSUNNY   75  70  83 CALM      29.98R
OSHKOSH        CLOUDY    76  70  82 CALM      29.97S
FOND DU LAC    CLOUDY    78  67  68 E3        29.97F
$$

WIZ022-050-052-211500-
EAST CENTRAL WISCONSIN

CITY           SKY/WX    TMP DP  RH WIND       PRES   REMARKS
EPHRAIM        FAIR      76  66  71 S3        29.96S
WASHINGTON ISL NOT AVBL
STURGEON BAY     N/A     78  68  71 S7        29.98R
MANITOWOC      NOT AVBL
SHEBOYGAN      CLOUDY    77  71  82 CALM      29.98S
$$

LMZ563-521-522-541>543-211500-
LAKESHORE

STATION/POSITION TIME  TEMP    WIND        PRES    VSBY  WAVE
                       AIR SEA DIR/SP/G                  HT/PER
                 (UTC) (F)     (DEG/KT/KT) (MB)    (MI)  (FT/S)
SHEBOYGAN LKSHOR 1300   69      20/  3/  3 1014.5F
KEWAUNEE LKSHORE 1330   73      CALM  /  1 1013.9F
NORTHPORT PIER   1340   72     350/  4/  5 1014.2F
N MID LAKE BUOY  1250   67 65  190/ 10/ 12 1015.0F         1
S GREEN BAY BUOY 1300   72 72  210/  2/  4 1014.6
SISTER BAY LKSHO 1318   79        CALM       N/A
CHAMBERS ISLAND  1340   74     220/  3/  6 1014.2S
MENOMINEE LKSHOR 1330   73     180/  5/  7 1014.1F
$$



USA.gov is the U.S. government's official web portal to all federal, state and local government web resources and services.